Weather Roundup
Issued by NWS

Home | Current Version | Previous Version | Text Only | Print | Product List | Glossary On
Versions: 1 2 3 4 5 6 7 8 9 10 11 12 13 14 15 16 17 18 19 20 21 22 23 24 25 26 27 28 29 30 31 32 33 34 35 36 37 38 39 40 41 42 43 44 45 46 47 48 49 50
000
NZUS93 KARX 031859
HRRWXR

CURRENT HOURLY OBSERVATIONS ACROSS
MUCH OF THE UPPER MISSISSIPPI VALLEY
NATIONAL WEATHER SERVICE LA CROSSE WI
200 PM CDT THU SEP 03 2015


...SOUTHEAST MINNESOTA...


CITY           SKY/WX    TMP DP  RH WIND       PRES   REMARKS
ROCHESTER      SUNNY     85  74  69 E8        29.92F HX  92
ROCHESTER/MAYO FAIR      85  72  63 E7        29.91F HX  91
WINONA         MOSUNNY   86  72  62 E7        29.91F HAZE    HX  92
AUSTIN         SUNNY     86  73  66 SE7       29.90S HX  93
ALBERT LEA     SUNNY     86  73  66 SE8       29.89S HX  93
DODGE CENTER   SUNNY     84  73  70 SE5       29.91S HX  91
PRESTON        MOSUNNY   85  72  64 SE9       29.92F HX  90
OWATONNA       SUNNY     88  73  62 E8        29.89F HX  96
FARIBAULT      SUNNY     84  75  74 E7        29.89F HX  92
$$

...ELSEWHERE IN MINNESOTA...


CITY           SKY/WX    TMP DP  RH WIND       PRES   REMARKS
MINNEAPOLIS    PTSUNNY   82  72  71 E13       29.90S
INTNL FALLS    SUNNY     81  63  54 SE14      29.91F
DULUTH         CLOUDY    65  63  93 E9        29.99S
RED WING       CLOUDY    79  70  73 E9        29.91S
REDWOOD FALLS  SUNNY     87  74  64 E10       29.84F HX  95
MANKATO        SUNNY     86  73  66 E9        29.87F HX  93
WORTHINGTON    SUNNY     84  72  65 SE13G18   29.86F
FAIRMONT       SUNNY     86  70  58 SE14      29.86F HX  90
$$

...SOUTHWEST WISCONSIN...


CITY           SKY/WX    TMP DP  RH WIND       PRES   REMARKS
LA CROSSE      MOSUNNY   87  72  60 VRB3      29.90F HX  93
PRAIRIE DU CHI SUNNY     87  70  57 S3        29.89F HX  92
BOSCOBEL       MOSUNNY   89  72  56 VRB3      29.90F HX  96
LONE ROCK      NOT AVBL
PLATTEVILLE    SUNNY     86  75  70 W3        29.93F HX  95
FORT MC COY    SUNNY     82  67  60 E3        29.94F
VIROQUA          N/A     84  71  65 CALM      29.94F
WIS DELLS      CLOUDY    81  69  67 NE9       29.94S
$$

...ELSEWHERE IN WISCONSIN...


CITY           SKY/WX    TMP DP  RH WIND       PRES   REMARKS
MILWAUKEE      PTSUNNY   80  70  71 E7        29.91F
MADISON        PTSUNNY   86  72  62 VRB7      29.92F HX  92
GREEN BAY      CLOUDY    74  68  81 N8        29.95F
EAU CLAIRE     NOT AVBL
BLACK RVR FLS  FAIR      84  67  57 E7        29.93F
MEDFORD        CLOUDY    73  66  79 NE5       29.99S
WAUSAU         CLOUDY    74  65  73 NE6       29.97S
WIS RAPIDS     PTSUNNY   79  65  62 VRB6      29.97F
MARSHFIELD     CLOUDY    73  63  70 E5        29.98S HAZE
RICE LAKE      SUNNY     79  67  66 S5        29.97F
$$

...NORTHEAST IOWA...


CITY           SKY/WX    TMP DP  RH WIND       PRES   REMARKS
DECORAH        MOSUNNY   84  73  70 CALM      29.91F HX  91
MASON CITY     SUNNY     87  74  64 S9        29.90F HX  95
CHARLES CITY   SUNNY     86  77  74 S7G13     29.90F HX  97
OELWEIN        SUNNY     86  73  66 SW5       29.92  HX  93
$$

...ELSEWHERE IN IOWA...


CITY           SKY/WX    TMP DP  RH WIND       PRES   REMARKS
DES MOINES     MOSUNNY   88  72  58 S10       29.88F HX  94
IOWA CITY      SUNNY     88  72  58 S8        29.92F HX  94
FORT DODGE     SUNNY     88  72  58 S9        29.88F HX  94
$$

...NORTHERN ILLINOIS...


CITY           SKY/WX    TMP DP  RH WIND       PRES   REMARKS
CHICAGO-OHARE  MOSUNNY   89  68  49 SW12      29.91F HX  93
CHICAGO-MIDWAY PTSUNNY   91  67  44 SW15      29.91F HX  94
MOLINE         MOSUNNY   90  70  51 W8        29.91F HX  95
ROCKFORD       MOSUNNY   88  73  61 W6        29.94F HX  95
PEORIA         SUNNY     93  67  42 W9        29.94F HX  96
$$

NOTE: "FAIR" INDICATES FEW OR NO CLOUDS BELOW 12,000 FEET WITH NO
SIGNIFICANT WEATHER AND/OR OBSTRUCTIONS TO VISIBILITY. WIND
SPEEDS ARE IN MILES-PER-HOUR.



USA.gov is the U.S. government's official web portal to all federal, state and local government web resources and services.